CW6135 Weather Reports


time (UTC)temp
F
wind
direction
speed
knots
gust
knots
rain 1hr
in
rain 24hr
in
rain mn
in
humidity
%
barometer
mb
20260906225505 85 248 2.6 8.7 0.00 0.00 0.00 24 1023.5
20260906225005 85 282 4.3 10.4 0.00 0.00 0.00 23 1023.4
20260906224505 85 246 6.1 10.4 0.00 0.00 0.00 23 1023.4
20260906224005 85 255 6.1 8.7 0.00 0.00 0.00 24 1023.4
20260906223505 85 261 4.3 8.7 0.00 0.00 0.00 24 1023.5
20260906223005 84 276 3.5 10.4 0.00 0.00 0.00 24 1023.4
20260906222505 84 240 6.1 10.4 0.00 0.00 0.00 24 1023.8
20260906222005 84 236 5.2 11.3 0.00 0.00 0.00 24 1023.8
20260906221504 84 238 6.1 11.3 0.00 0.00 0.00 24 1023.8
20260906220005 83 102 1.7 8.7 0.00 0.00 0.00 24 1023.8
20260906215504 83 190 4.3 13.0 0.00 0.00 0.00 25 1023.8
20260906215005 84 238 7.8 13.0 0.00 0.00 0.00 25 1023.8
20260906214505 84 218 5.2 10.4 0.00 0.00 0.00 25 1024.0
20260906214005 83 229 2.6 7.0 0.00 0.00 0.00 24 1023.8
20260906213504 83 254 2.6 7.8 0.00 0.00 0.00 24 1024.0
20260906213005 83 200 5.2 7.8 0.00 0.00 0.00 25 1024.0
20260906212504 82 212 2.6 6.1 0.00 0.00 0.00 25 1024.0
20260906212005 82 280 1.7 10.4 0.00 0.00 0.00 25 1024.3
20260906211505 82 140 6.1 10.4 0.00 0.00 0.00 25 1024.3
20260906211005 83 252 2.6 7.0 0.00 0.00 0.00 24 1024.3
20260906210505 83 183 4.3 13.0 0.00 0.00 0.00 25 1024.4
20260906210005 84 216 8.7 13.0 0.00 0.00 0.00 24 1024.4
20260906205504 83 230 7.0 10.4 0.00 0.00 0.00 25 1024.4
20260906205007 84 192 7.8 10.4 0.00 0.00 0.00 24 1024.4
20260906204004 82 57 3.5 8.7 0.00 0.00 0.00 24 1024.8
20260906203504 83 98 3.5 12.2 0.00 0.00 0.00 24 1024.8
20260906203004 83 191 5.2 15.6 0.00 0.00 0.00 24 1024.8
20260906202504 82 140 4.3 17.4 0.00 0.00 0.00 24 1024.8
20260906201005 83 216 2.6 10.4 0.00 0.00 0.00 24 1025.2
20260906200505 83 214 5.2 10.4 0.00 0.00 0.00 26 1025.2
20260906200005 82 211 2.6 10.4 0.00 0.00 0.00 25 1025.2
20260906195505 81 198 4.3 10.4 0.00 0.00 0.00 26 1025.1
20260906195005 82 248 3.5 14.8 0.00 0.00 0.00 25 1025.1
20260906194505 82 247 6.1 14.8 0.00 0.00 0.00 25 1025.2
20260906193505 82 243 5.2 12.2 0.00 0.00 0.00 25 1025.2
20260906193005 81 183 3.5 12.2 0.00 0.00 0.00 25 1025.4
20260906192505 82 200 4.3 12.2 0.00 0.00 0.00 26 1025.4
20260906192005 82 222 7.0 10.4 0.00 0.00 0.00 26 1025.6
20260906191504 81 223 4.3 12.2 0.00 0.00 0.00 26 1025.6
20260906191005 82 215 8.7 12.2 0.00 0.00 0.00 26 1025.6
20260906190504 81 239 2.6 10.4 0.00 0.00 0.00 26 1025.6
20260906185504 82 201 3.5 11.3 0.00 0.00 0.00 25 1026.3
20260906185005 82 204 7.0 11.3 0.00 0.00 0.00 25 1026.3
20260906184505 83 203 6.1 13.0 0.00 0.00 0.00 25 1026.3
20260906183505 81 261 7.8 12.2 0.00 0.00 0.00 25 1026.3
20260906183005 82 234 5.2 11.3 0.00 0.00 0.00 25 1026.3
20260906182504 81 241 4.3 13.0 0.00 0.00 0.00 25 1026.3
20260906182005 81 217 7.8 13.0 0.00 0.00 0.00 26 1026.4
20260906181504 81 154 7.0 11.3 0.00 0.00 0.00 25 1026.3
20260906180505 79 228 5.2 10.4 0.00 0.00 0.00 25 1026.3
20260906175005 80 145 4.3 10.4 0.00 0.00 0.00 24 1026.6
20260906174505 79 169 2.6 7.0 0.00 0.00 0.00 25 1026.6
20260906174007 79 195 4.3 7.0 0.00 0.00 0.00 24 1026.6
20260906173505 78 204 4.3 6.1 0.00 0.00 0.00 25 1026.6
20260906173004 77 204 4.3 7.0 0.00 0.00 0.00 27 1026.9
20260906172504 76 194 4.3 7.0 0.00 0.00 0.00 29 1026.9
20260906171504 74 204 6.1 8.7 0.00 0.00 0.00 34 1027.1
20260906170504 73 189 6.1 8.7 0.00 0.00 0.00 34 1027.0
20260906165505 73 203 7.0 8.7 0.00 0.00 0.00 34 1027.0
20260906165004 73 198 7.0 8.7 0.00 0.00 0.00 34 1027.4
20260906164004 74 212 5.2 7.8 0.00 0.00 0.00 34 1027.1
20260906163004 74 207 6.1 10.4 0.00 0.00 0.00 34 1027.0
20260906162504 74 213 6.1 8.7 0.00 0.00 0.00 34 1027.1
20260906162005 74 221 7.0 8.7 0.00 0.00 0.00 34 1027.0
20260906161504 73 217 7.0 8.7 0.00 0.00 0.00 35 1027.0
20260906161004 72 212 6.1 10.4 0.00 0.00 0.00 36 1027.0
20260906160504 72 206 7.8 10.4 0.00 0.00 0.00 36 1027.0
20260906160005 72 205 7.0 8.7 0.00 0.00 0.00 36 1027.0
20260906155504 72 220 6.1 7.8 0.00 0.00 0.00 36 1027.2
20260906155005 71 203 5.2 6.1 0.00 0.00 0.00 37 1027.0
20260906154005 69 203 4.3 5.2 0.00 0.00 0.00 37 1027.1
20260906153504 69 192 4.3 5.2 0.00 0.00 0.00 38 1027.1
20260906153004 70 201 4.3 5.2 0.00 0.00 0.00 36 1027.1
20260906152505 70 212 2.6 4.3 0.00 0.00 0.00 38 1027.2
20260906152005 70 219 1.7 2.6 0.00 0.00 0.00 37 1027.2
20260906151504 70 211 0.9 2.6 0.00 0.00 0.00 35 1027.2
20260906150504 71 309 0.0 0.0 0.00 0.00 0.00 33 1027.3
20260906150005 71 309 0.0 2.6 0.00 0.00 0.00 34 1027.4
20260906145504 70 309 0.0 2.6 0.00 0.00 0.00 36 1027.3
20260906145004 68 34 0.9 2.6 0.00 0.00 0.00 38 1027.3
20260906144505 67 65 1.7 4.3 0.00 0.00 0.00 39 1027.3
20260906144005 66 64 2.6 4.3 0.00 0.00 0.00 40 1027.3
20260906143004 64 110 1.7 2.6 0.00 0.00 0.00 42 1027.7
20260906142504 63 116 1.7 2.6 0.00 0.00 0.00 43 1027.7
20260906142004 63 116 0.9 2.6 0.00 0.00 0.00 43 1027.8
20260906141005 61 61 0.9 2.6 0.00 0.00 0.00 46 1027.4
20260906140504 60 41 0.9 2.6 0.00 0.00 0.00 48 1027.4
20260906140005 59 55 1.7 2.6 0.00 0.00 0.00 49 1027.4
20260906135504 57 46 1.7 2.6 0.00 0.00 0.00 52 1027.2
20260906134504 54 26 3.5 7.8 0.00 0.00 0.00 56 1026.9
20260906134005 52 42 5.2 7.8 0.00 0.00 0.00 59 1027.0
20260906133504 51 45 5.2 7.8 0.00 0.00 0.00 60 1026.9
20260906133005 50 36 2.6 7.0 0.00 0.00 0.00 61 1026.9
20260906132505 50 28 4.3 7.0 0.00 0.00 0.00 60 1026.9
20260906131504 49 51 4.3 8.7 0.00 0.00 0.00 62 1026.5
20260906131004 48 46 6.1 8.7 0.00 0.00 0.00 62 1026.5
20260906130504 48 40 5.2 7.0 0.00 0.00 0.00 61 1026.4
20260906130004 49 47 5.2 6.1 0.00 0.00 0.00 61 1026.3
20260906125504 48 48 3.5 6.1 0.00 0.00 0.00 61 1026.3
20260906125004 49 49 3.5 7.0 0.00 0.00 0.00 61 1026.4
20260906124505 49 42 5.2 7.8 0.00 0.00 0.00 60 1026.3
20260906123004 48 49 5.2 7.8 0.00 0.00 0.00 64 1026.4
20260906122504 48 38 4.3 5.2 0.00 0.00 0.00 63 1026.4
20260906122005 47 38 2.6 4.3 0.00 0.00 0.00 62 1026.4
20260906121504 48 64 2.6 6.1 0.00 0.00 0.00 60 1026.4
20260906121004 50 57 1.7 6.1 0.00 0.00 0.00 57 1026.3
20260906120504 51 14 3.5 6.1 0.00 0.00 0.00 55 1026.1
20260906120004 53 51 2.6 7.8 0.00 0.00 0.00 53 1026.1
20260906115004 51 58 6.1 10.4 0.00 0.00 0.00 58 1026.2
20260906114504 49 47 6.1 10.4 0.00 0.00 0.00 60 1026.1
20260906114004 49 49 6.1 7.8 0.00 0.00 0.00 61 1026.1
20260906113505 48 41 5.2 7.8 0.00 0.00 0.00 61 1026.0
20260906113004 48 53 6.1 7.8 0.00 0.00 0.00 62 1026.0
20260906112504 48 44 5.2 6.1 0.00 0.00 0.00 60 1026.0
20260906112005 49 41 5.2 7.0 0.00 0.00 0.00 59 1026.0
20260906111504 51 41 4.3 7.8 0.00 0.00 0.00 57 1026.0
20260906111004 51 40 6.1 7.8 0.00 0.00 0.00 59 1026.2
20260906110504 49 60 4.3 7.8 0.00 0.00 0.00 63 1026.2
20260906110004 47 60 3.5 7.8 0.00 0.00 0.00 64 1025.9
20260906105504 46 45 6.1 7.8 0.00 0.00 0.00 65 1025.9
20260906105004 46 38 5.2 6.1 0.00 0.00 0.00 63 1025.9
20260906104505 47 39 5.2 6.1 0.00 0.00 0.00 62 1025.9
20260906104005 47 37 4.3 5.2 0.00 0.00 0.00 61 1025.6
20260906103505 48 33 4.3 5.2 0.00 0.00 0.00 61 1025.6
20260906103004 48 37 4.3 7.8 0.00 0.00 0.00 61 1025.6
20260906102005 49 48 5.2 6.1 0.00 0.00 0.00 60 1025.5
20260906101004 49 65 3.5 5.2 0.00 0.00 0.00 60 1025.4
20260906100505 50 48 2.6 4.3 0.00 0.00 0.00 58 1025.3
20260906100005 51 61 4.3 4.3 0.00 0.00 0.00 54 1026.0
20260906095504 52 23 2.6 5.2 0.00 0.00 0.00 54 1026.0
20260906095004 54 23 1.7 5.2 0.00 0.00 0.00 53 1026.0
20260906094004 55 48 3.5 7.0 0.00 0.00 0.00 52 1026.0
20260906093504 54 57 5.2 7.8 0.00 0.00 0.00 54 1026.0
20260906092504 54 48 4.3 7.0 0.00 0.00 0.00 54 1026.0
20260906092004 52 67 4.3 7.0 0.00 0.00 0.00 57 1025.6
20260906091504 51 54 4.3 6.1 0.00 0.00 0.00 58 1025.6
20260906091004 50 41 4.3 5.2 0.00 0.00 0.00 57 1025.4
20260906090504 51 42 4.3 6.1 0.00 0.00 0.00 55 1025.8
20260906085504 52 35 2.6 5.2 0.00 0.00 0.00 54 1025.8
20260906085004 52 39 4.3 5.2 0.00 0.00 0.00 54 1025.8
20260906084504 53 35 1.7 4.3 0.00 0.00 0.00 53 1025.9
20260906084005 53 30 1.7 7.0 0.00 0.00 0.00 53 1025.8
20260906083504 53 37 2.6 7.0 0.00 0.00 0.00 53 1025.8
20260906083004 53 35 5.2 8.7 0.00 0.00 0.00 54 1025.8
20260906082505 53 39 6.1 8.7 0.00 0.00 0.00 53 1025.8
20260906082004 53 43 5.2 7.8 0.00 0.00 0.00 52 1026.0
20260906081504 55 40 5.2 10.4 0.00 0.00 0.00 50 1026.0
20260906081004 56 36 5.2 10.4 0.00 0.00 0.00 48 1026.1
20260906080505 57 47 8.7 10.4 0.00 0.00 0.00 48 1026.1
20260906075504 56 55 7.0 10.4 0.00 0.00 0.00 50 1026.3
20260906075005 54 48 8.7 10.4 0.00 0.00 0.00 52 1026.3
20260906074504 55 40 6.1 8.7 0.00 0.00 0.00 52 1026.3
20260906074004 55 40 6.1 10.4 0.00 0.00 0.00 50 1026.3
20260906073504 55 48 5.2 10.4 0.00 0.00 0.00 50 1026.3
20260906073004 54 46 7.8 10.4 0.00 0.00 0.00 52 1026.3
20260906072004 54 34 5.2 7.8 0.00 0.00 0.00 53 1026.3
20260906071504 53 40 5.2 7.0 0.00 0.00 0.00 53 1026.2
20260906071004 53 53 5.2 7.8 0.00 0.00 0.00 53 1026.1
20260906070505 54 35 4.3 7.8 0.00 0.00 0.00 52 1026.1
20260906065004 55 36 4.3 7.8 0.00 0.00 0.00 51 1026.3
20260906064504 55 49 5.2 7.8 0.00 0.00 0.00 51 1026.2
20260906064004 54 39 6.1 7.8 0.00 0.00 0.00 52 1026.2
20260906063505 54 40 5.2 7.8 0.00 0.00 0.00 52 1026.2
20260906063004 54 35 4.3 6.1 0.00 0.00 0.00 51 1026.2
20260906061505 55 41 4.3 5.2 0.00 0.00 0.00 48 1026.0
20260906061005 55 45 2.6 5.2 0.00 0.00 0.00 50 1026.1
20260906060505 55 56 3.5 5.2 0.00 0.00 0.00 49 1026.0
20260906060005 55 64 3.5 4.3 0.00 0.00 0.00 49 1026.0
20260906055506 56 25 2.6 4.3 0.00 0.00 0.00 49 1026.0
20260906055005 56 49 4.3 4.3 0.00 0.00 0.00 48 1026.0
20260906054505 56 26 2.6 4.3 0.00 0.00 0.00 48 1026.1
20260906054005 57 39 2.6 5.2 0.00 0.00 0.00 47 1026.0
20260906053006 58 38 4.3 5.2 0.00 0.00 0.00 46 1026.0
20260906052505 58 41 2.6 4.3 0.00 0.00 0.00 46 1026.0
20260906052005 58 55 2.6 4.3 0.00 0.00 0.00 46 1026.0
20260906051505 58 40 2.6 4.3 0.00 0.00 0.00 46 1026.0
20260906051005 58 40 2.6 7.0 0.00 0.00 0.00 45 1026.0
20260906050505 59 51 2.6 7.0 0.00 0.00 0.00 45 1026.0
20260906050005 59 88 4.3 7.0 0.00 0.00 0.00 45 1026.0
20260906045505 59 52 2.6 5.2 0.00 0.00 0.00 44 1026.0
20260906044505 61 53 2.6 7.8 0.00 0.00 0.00 42 1026.0
20260906044005 61 106 6.1 7.8 0.00 0.00 0.00 43 1025.9
20260906043505 60 51 2.6 6.1 0.00 0.00 0.00 44 1025.9
20260906043005 60 36 2.6 5.2 0.00 0.00 0.00 42 1025.9
20260906042505 62 34 4.3 7.8 0.00 0.00 0.00 40 1026.0
20260906042005 64 49 2.6 7.8 0.00 0.00 0.00 38 1025.9
20260906041005 63 98 3.5 5.2 0.00 0.00 0.00 40 1025.9
20260906035505 66 76 1.7 2.6 0.00 0.00 0.00 36 1025.8
20260906035005 68 158 1.7 2.6 0.00 0.00 0.00 36 1025.5
20260906034505 69 150 0.9 2.6 0.00 0.00 0.00 35 1025.5
20260906034004 70 146 1.7 2.6 0.00 0.00 0.00 34 1025.5
20260906033505 71 161 1.7 6.1 0.00 0.00 0.00 34 1025.5
20260906032506 71 148 3.5 7.0 0.00 0.00 0.00 33 1025.5
20260906032005 72 142 4.3 7.0 0.00 0.00 0.00 33 1025.5
20260906031005 72 133 2.6 7.8 0.00 0.00 0.00 33 1025.5
20260906030505 73 130 1.7 7.8 0.00 0.00 0.00 33 1025.5
20260906030005 73 160 4.3 7.8 0.00 0.00 0.00 33 1025.5
20260906025505 73 144 2.6 7.8 0.00 0.00 0.00 33 1025.2
20260906024505 73 136 3.5 7.0 0.00 0.00 0.00 33 1025.2
20260906024005 73 150 4.3 10.4 0.00 0.00 0.00 32 1025.2
20260906023505 73 145 5.2 10.4 0.00 0.00 0.00 32 1025.0
20260906023005 74 153 5.2 10.4 0.00 0.00 0.00 32 1025.0
20260906022505 74 158 7.0 10.4 0.00 0.00 0.00 32 1024.9
20260906022005 74 155 4.3 7.8 0.00 0.00 0.00 32 1024.8
20260906021505 74 156 5.2 7.8 0.00 0.00 0.00 33 1024.8
20260906021006 74 165 5.2 7.8 0.00 0.00 0.00 33 1024.8
20260906020005 74 165 5.2 7.8 0.00 0.00 0.00 33 1024.6
20260906015505 74 170 5.2 7.8 0.00 0.00 0.00 33 1024.6
20260906015005 74 161 4.3 7.0 0.00 0.00 0.00 33 1024.6
20260906014005 75 172 4.3 7.8 0.00 0.00 0.00 32 1024.5
20260906013505 75 178 4.3 8.7 0.00 0.00 0.00 31 1024.6
20260906013005 76 168 5.2 8.7 0.00 0.00 0.00 31 1024.7
20260906012505 76 176 5.2 8.7 0.00 0.00 0.00 31 1024.7
20260906012005 76 184 3.5 5.2 0.00 0.00 0.00 31 1024.7
20260906011505 76 190 3.5 6.1 0.00 0.00 0.00 31 1024.7
20260906011005 77 196 4.3 7.0 0.00 0.00 0.00 30 1024.5
20260906005505 78 193 6.1 8.7 0.00 0.00 0.00 28 1024.5
20260906005005 78 187 5.2 10.4 0.00 0.00 0.00 28 1024.5
20260906004505 79 197 7.0 10.4 0.00 0.00 0.00 28 1024.5
20260906004004 79 195 7.0 10.4 0.00 0.00 0.00 28 1024.5
20260906003505 80 198 7.0 10.4 0.00 0.00 0.00 27 1024.5
20260906002504 80 199 5.2 10.4 0.00 0.00 0.00 27 1024.4
20260906002004 80 189 7.0 11.3 0.00 0.00 0.00 26 1024.4
20260906001505 80 187 8.7 11.3 0.00 0.00 0.00 27 1024.3
20260906001004 80 184 7.8 11.3 0.00 0.00 0.00 26 1024.3
20260906000505 80 196 7.8 11.3 0.00 0.00 0.00 28 1024.3
20260906000005 81 193 7.8 11.3 0.00 0.00 0.00 28 1024.3
20260905235505 82 194 7.0 11.3 0.00 0.00 0.00 26 1024.2
20260905235005 82 205 6.1 11.3 0.00 0.00 0.00 26 1024.2
20260905234505 82 203 8.7 11.3 0.00 0.00 0.00 27 1024.4
20260905234005 82 183 8.7 12.2 0.00 0.00 0.00 27 1024.6
20260905233504 82 209 9.6 12.2 0.00 0.00 0.00 27 1024.6
20260905233005 82 179 7.8 12.2 0.00 0.00 0.00 26 1024.3
20260905232505 83 196 7.8 12.2 0.00 0.00 0.00 27 1024.6
20260905232005 83 163 8.7 12.2 0.00 0.00 0.00 26 1024.4
20260905231505 83 239 6.1 13.9 0.00 0.00 0.00 26 1024.4
20260905230504 82 181 8.7 13.9 0.00 0.00 0.00 27 1024.5
20260905230005 82 226 2.6 10.4 0.00 0.00 0.00 26 1024.5